Weather History for Bishop, CA

Change the Weather History Date:

Saturday, June 8, 2013

  Actual Average Record
Temperature  
Mean Temperature 82 °F 70 °F  
Max Temperature 105 °F 90 °F 105 °F (2013)
Min Temperature 59 °F 49 °F 35 °F (1988)
Degree Days  
Heating Degree Days 0 1  
Month to date heating degree days 0 11  
Since 1 June heating degree days 0 11  
Since 1 July heating degree days 3851 4169  
Cooling Degree Days 17 5  
Month to date cooling degree days 99 39  
Year to date cooling degree days 185 107  
Since 1 June cooling degree days 99 39  
Growing Degree Days 34 (Base 50)    
Moisture  
Dew Point 29 °F    
Average Humidity 16    
Maximum Humidity 26    
Minimum Humidity 5    
Precipitation  
Precipitation 0.00 in 0.01 in 0.08 in (1977)
Month to date precipitation T 0.06  
Year to date precipitation 0.47 2.94  
Snow  
Snow 0.00 in 0.00 in - ()
Month to date snowfall 0.0 0.0  
Since 1 June snowfall 0.0 0.0  
Since 1 July snowfall 2.8 6.8  
Snow Depth 0.00 in    
Sea Level Pressure  
Sea Level Pressure 29.74 in    
Wind  
Wind Speed 6 mph (NW)    
Max Wind Speed 13 mph    
Max Gust Speed 18 mph    
Visibility 10 miles    
Events      
T = Trace of Precipitation, MM = Missing Value Source: NWS Daily Summary

Daily Weather History Graph

Daily Weather History Graph

Search for Another Location

Airport:

Trip Planner

Search our weather history database for the weather conditions in past years. The results will help you decide how hot, cold, wet, or windy it might be!

Date:

Astronomy

Jun. 08, 2013 Rise Set
Actual Time 5:32 AM PDT 8:12 PM PDT
Civil Twilight 5:01 AM PDT 8:43 PM PDT
Nautical Twilight 4:23 AM PDT 9:22 PM PDT
Astronomical Twilight 3:40 AM PDT 10:05 PM PDT
Moon 5:42 AM PDT (6/8) 8:20 PM PDT (6/8)
Length of Visible Light 15h 42m
Length of Day
14h 40m
New Moon, 0% of the Moon is Illuminated
Jun 8
New Moon
Jun 16
First Quarter
Jun 23
Full
Jun 29
Last Quarter
Jul 8
New

Hourly Weather History & Observations

Time (PDT) Temp. Dew Point Humidity Pressure Visibility Wind Dir Wind Speed Gust Speed Precip Events Conditions
12:56 AM 70.0 °F 26.1 °F 19% 29.76 in 10.0 mi North 5.8 mph - N/A   Clear
1:56 AM 64.9 °F 28.9 °F 26% 29.77 in 10.0 mi West 6.9 mph - N/A   Clear
2:56 AM 63.0 °F 26.1 °F 25% 29.78 in 10.0 mi North 3.5 mph - N/A   Clear
3:56 AM 62.1 °F 27.0 °F 26% 29.80 in 10.0 mi North 6.9 mph - N/A   Clear
4:56 AM 66.0 °F 25.0 °F 21% 29.81 in 10.0 mi WNW 8.1 mph - N/A   Clear
5:56 AM 66.0 °F 30.0 °F 26% 29.82 in 10.0 mi NNW 5.8 mph - N/A   Clear
6:56 AM 73.0 °F 33.1 °F 23% 29.82 in 10.0 mi West 5.8 mph - N/A   Clear
7:56 AM 82.0 °F 34.0 °F 18% 29.83 in 10.0 mi West 8.1 mph - N/A   Clear
8:56 AM 88.0 °F 36.0 °F 16% 29.83 in 10.0 mi WSW 9.2 mph - N/A   Clear
2:56 PM 102.9 °F 24.1 °F 6% 29.72 in 10.0 mi North 6.9 mph - N/A   Clear
3:56 PM 104.0 °F 23.0 °F 6% 29.71 in 10.0 mi Variable 6.9 mph - N/A   Clear
4:56 PM 104.0 °F 23.0 °F 6% 29.68 in 10.0 mi WNW 5.8 mph - N/A   Clear
5:56 PM 104.0 °F 21.9 °F 5% 29.67 in 10.0 mi NW 4.6 mph - N/A   Clear
6:56 PM 102.0 °F 23.0 °F 6% 29.65 in 10.0 mi Variable 3.5 mph - N/A   Clear
7:56 PM 95.0 °F 28.9 °F 10% 29.66 in 10.0 mi East 4.6 mph - N/A   Clear
8:56 PM 91.0 °F 32.0 °F 12% 29.68 in 10.0 mi SW 8.1 mph - N/A   Clear
9:56 PM 87.1 °F 28.9 °F 12% 29.71 in 10.0 mi SSW 3.5 mph - N/A   Clear
10:56 PM 86.0 °F 37.0 °F 18% 29.72 in 10.0 mi WNW 6.9 mph - N/A   Clear
11:56 PM 77.0 °F 37.0 °F 24% 29.74 in 10.0 mi NE 3.5 mph - N/A   Clear